Погода в Шойне

Погода в Шойне : погода сейчас, прогноз погоды и архив. Всё, что Вы хотите узнать о погоде в Шойне!

Поиск расширенной информации на нашем сайте:

Полезная информация: Очки ray ban заказать очки.

Другие новости

Новости СМИ2

Главная страница сайта

Новости сайта

03.07.2017

Напоминаем, что на нашем специализированном сайте Метеоцентр.Азия вы можете получить высокодетализированные автоматические прогнозы погоды по пунктам России, СНГ и мира в авиационном формате (включающие направление и скорость ветра, видимость, явления погоды, количество и форму облачности, нижнюю и верхнюю границу облачности).

Рекомендуем: Бизнес по реализации разливного пива оборудование www.kegz.ru.

Погода в Шойне - сегодня

Время (UTC), дата Ветер
(°,м/с) 
Видим.   Явления Облачность Т
(°С)
Тd
(°С)
f(%) Тe
(°С)
Pmin
(гПа)
dP
(гПа)
Po
(мм)
O2
(г/м3)
Тmin Tmax R s Состояние
почвы
00 17.10.17 130 (ЮВ) 10 км  слаб. дождь  10/10 300 м 
[Frnb|Ns]
+4.6 +2.5 86 +2  1000.4  -3.6  744  295           
03 17.10.17 140 (ЮВ) 10 км  слаб. дождь  10/10 300 м 
[Frnb|Ns]
+4.6 +4.6 100 +2  990.8  -2.1  743  294           
06 17.10.17 140 (ЮВ) 10 км  слаб. дождь  10/10 300 м 
[Frnb|Ns]
+4.8 +4.8 100 +2  989.3  -1.5  742  293           
09 17.10.17 130 (ЮВ) 6{10}  10 км  слаб. дождь  10/10 300 м 
[Frnb|Ns]
+5.2 +4.9 98 +3  989.4  0.1  742  292           
12 17.10.17 110 (В) 5{10}  10 км  слаб. дождь  10/10 300 м 
[Frnb|Ns]
+5.2 +5.2 100 +3  989.6  0.2  742  292           
15 17.10.17 070 (В) 10 км  слаб. дождь  10/10 300 м 
[Frnb|Ns]
+4.4 +4.4 100 +3  989.9  0.3  742  294    +5.5     
18 17.10.17 080 (В) 10 км  слаб. дождь  10/10 300 м 
[Frnb|Ns]
+4.6 +4.6 100 +3  989.9  742  293           
21 17.10.17 050 (СВ) 10 км  слаб. дождь{снег}  10/10 300 м 
[Frnb|Ns]
+4.2 +4.2 100 +2  989.8  -0.1  742  294           
00 18.10.17 060 (СВ) 20000 м  {снег, дождь}  10/10 200 м 
[St]
+4 +3.8 99 +2  989.7  -0.2  742  294           
03 18.10.17 030 (СВ) 20000 м    10/10 300 м 
[Sc]
+3.8 +3.5 98 +1  989.1  -0.5  741  294  +3.6       
06 18.10.17 030 (СВ) 7{10}  10 км  слаб. дождь  10/8 300 м средняя 
[Frnb|As op]
+3.2 +3.2 100 988.7  -0.4  741  295  +3.2         
09 18.10.17 030 (СВ) 7{10}  20000 м  {дождь}  9/9 600 м 
[Sc]
+3.4 +2.8 96 988.2  -0.5  741  294           
12 18.10.17 360 (С) 5{11}  20000 м  {дождь}  9/9 600 м 
[Sc]
+3.2 +2.6 96 +1  988.2  741  295           
15 18.10.17 020 (С) 7{11}  20000 м    10/10 600 м 
[Sc]
+2.8 +2.5 98 -1  988.7  0.5  741  295    +3.8  0.4     
18 18.10.17 010 (С) 8{11}  20000 м  в посл. час ливневой дождь  10/10 300 м кучево-дожд. 
[Cb calv]
+1.8 +1.5 98 -2  990.1  1.4  742  297           
21 18.10.17 010 (С) 9{11}  20000 м    10/10 600 м 
[Sc]
+1.6 +0.9 95 -3  991.5  1.4  743  298           
00 19.10.17 010 (С) 11{17}  20000 м    10/10 600 м 
[Sc]
+1.2 +0.5 95 -4  993.4  1.9  745  299           
03 19.10.17 010 (С) 10{17}  20000 м    10/10 600 м 
[Sc]
+1.3 -0.8 86 -3  995.8  2.4  746  299  +0.8    0.3     
06 19.10.17 010 (С) 6{14}  20000 м    9/9 600 м 
[Sc]
+1.4 -2 78 -2  998.5  2.7  748  300           
09 19.10.17 360 (С) 10{13}  20000 м    9/9 600 м 
[Sc]
+2.4 -0.9 79 -2  1000.6  750  300           
12 19.10.17 350 (С) 10{18}  20000 м  {ливн. осадки}  4/4 300 м кучево-дожд. 
[Cb calv]
+2.1 -0.8 81 -2  1002.9  2.4  752  301           
15 19.10.17 350 (С) 7{17}  20000 м  в посл. час ливневой снег  8/8 300 м кучево-дожд. 
[Cb calv]
+0.6 +0.5 99 -3  1004.5  1.6  753  303    +2.7       
18 19.10.17 350 (С) 8{17}  20000 м  {ливн. осадки}  3/3 300 м кучево-дожд. 
[Cb calv]
+2.2 -2.2 73 -2  1005.2  0.7  753  301           
21 19.10.17 340 (С) 8{15}  20000 м  {ливн. осадки}  3/3 300 м кучево-дожд. 
[Cb calv]
+2.1 -1.2 79 -2  1005.8  0.6  754  302           
03 20.10.17 350 (С) н/о    н/о 
+0.7 -0.6 91 -3  1006.9  0.5  755  303           
Время (UTC), дата Ветер
(°,м/с) 
Видим.   Явления Облачность Т
(°С)
Тd
(°С)
f(%) Тe
(°С)
Pmin
(гПа)
dP
(гПа)
Po
(мм)
O2
(г/м3)
Тmin Tmax R s Состояние
почвы

Для получения пояснительной информации подведите курсор к названию столбца.

ПОГОДА в Шойне - архив

Всё, что Вы хотите узнать о погоде в Шойне - удобно и подробно!

Выберите нужную дату (начиная с 1 января 2015* года) и нажмите кнопку "Найти".
Будут отображены архивные сводки погоды по пункту Шойна, начиная с указанной даты.


Отображать данные в формате CSV (для использования в таблицах Excel)


Внимание! Наш архив погоды предназначен исключительно для личного некоммерческого использования в познавательных целях. Если Вам необходимы официальные справки о состоянии погоды (для производственных, юридических, коммерческих и т.п. целей), обращайтесь в органы Росгидромета.

*Примечание: данная дата относится к архиву по метеостанциям СССР (Россия, СНГ, Балтия).
Архив по метеостанциям Зарубежной Европы и Азии (кроме Китая) хранится 10 дней, по другим регионам земного шара (Китай, Африка, Америка, Австралия, Океания) - 1 день.

Шойна - район местоположения метеостанции


Название, широта, долгота, высота метеостанции:
Шойна 67.9°ш. 44.1°д. 8 м над ур. моря [Российская Федерация]

Дополнительная информация

В oтличие oт бoльшинства пoгoдных сайтoв мы публикуем пoдрoбную метеoинфoрмацию в детальнoм прoфессиoнальнoм фoрмате.

Характеристики температуры и влажнoсти вoздуха измеряются на высoте 2 м в тени вдали oт зданий и деревьев.
Скoрoсть ветра измеряется на высoте 10 м (на урoвне рoста челoвека скoрoсть ветра ниже в 1.5-2 раза). Если метеoстанция нахoдится в гoрoде или в лесу, тo скoрoсть ветра занижена на 2-4 м/с пo сравнению с oткрытым местoм. Скoрoсть ветра над акватoриями крупных рек и oзёр, а также на вершинах хoлмoв на 2-5 м/с выше, чем в oбычных услoвиях.
Атмoсфернoе давление в разных тoчках местнoсти мoжет значительнo oтличаться oт давления на метеoстанции, в зависимoсти oт услoвий рельефа (при пoдъёме на 10 м давление пoнижается примернo на 1 мм рт.ст.).